SCP
6 6 5 3 3 3 4 6 8 7 6 4 3 4 4 3 3 2 2 2 2 2 2 3 2 2 2 2 2 2 3 2 2 1 1 1 1 1 2 3 2 2 1
6 6 5 3 3 3 3 5 6 7 6 4 4 3 3 3 3 3 2 2 2 2 2 3 2 2 2 2 2 2 2 2 2 2 1 1 1 1 2 2 2 1 1
6 5 4 3 3 3 3 4 5 6 6 6 4 3 3 3 3 3 3 3 2 2 2 2 2 1 2 2 2 2 2 2 2 2 2 1 1 1 1 1 1 1 1
5 4 3 3 3 3 3 4 5 6 7 7 5 4 3 3 4 4 3 3 2 2 2 1 1 1 1 2 2 2 2 2 2 2 2 2 1 1 1 1 1 1 1
4 4 3 3 3 3 3 4 5 6 6 6 6 5 4 3 4 4 3 2 3 3 3 2 2 2 2 2 2 2 2 2 2 2 2 2 2 2 1 1 1 1 1
4 3 3 3 4 3 4 4 5 5 5 5 5 6 6 5 5 4 3 3 3 3 3 3 2 2 2 2 3 2 2 2 2 2 2 2 2 2 2 1 2 2 1
4 3 3 4 5 4 4 4 4 4 3 4 4 6 7 7 6 5 5 4 3 3 4 4 4 3 2 3 3 2 2 2 2 2 2 3 2 2 2 2 2 1 1
3 3 3 5 5 4 3 4 4 3 3 3 3 4 6 6 6 6 6 5 4 3 4 5 5 4 3 3 3 3 2 3 3 3 3 3 3 2 2 2 2 2 1
4 4 4 5 4 3 2 3 3 3 3 3 3 4 5 5 5 5 5 5 4 3 4 4 4 4 3 3 3 3 3 3 3 3 3 4 3 3 3 2 2 2 2
5 5 5 5 4 3 3 3 3 3 3 3 3 3 4 4 4 4 5 4 4 4 4 4 4 4 4 3 4 4 4 4 4 3 3 4 4 3 3 2 2 2 2
5 5 5 4 3 3 3 3 4 3 3 3 3 4 4 3 3 3 4 4 4 4 4 4 4 5 5 5 5 5 5 5 4 4 3 3 4 3 3 3 2 2 2
4 4 4 3 3 3 3 4 4 3 3 3 4 5 5 3 3 4 4 4 5 4 4 4 4 4 5 5 5 5 5 5 5 4 3 3 4 4 3 3 3 3 2
3 3 3 3 3 3 3 4 4 3 3 4 5 6 5 4 3 3 3 4 4 4 4 3 3 4 4 5 5 6 6 6 6 5 4 3 4 5 4 3 3 3 2
2 3 3 4 4 4 4 4 4 3 3 3 4 5 5 3 2 2 3 3 3 3 3 3 3 3 3 4 4 5 6 7 6 5 4 3 4 4 4 3 3 3 2
2 2 3 4 5 5 4 4 3 3 3 2 3 4 4 3 2 2 2 2 2 2 2 2 2 3 3 3 3 5 6 8 8 7 5 3 3 2 2 2 2 2 2
2 2 3 4 5 5 5 4 4 3 3 2 2 2 2 2 2 2 2 2 2 2 2 2 2 2 2 2 2 3 6 8 9 8 6 4 2 1 1 1 1 1 1
2 2 2 4 4 5 5 5 4 4 3 2 1 1 2 2 3 2 2 2 2 2 2 2 2 2 2 1 1 2 4 6 8 9 8 5 2 1 1 1 1 1 1
1 1 2 3 4 4 5 4 4 3 3 2 2 2 2 3 4 3 3 3 3 4 3 2 2 2 2 1 0 1 2 4 6 7 6 4 2 1 1 1 1 1 1
2 2 3 4 4 4 4 3 3 3 3 3 2 2 2 4 4 4 3 3 4 4 4 3 2 2 2 1 0 0 1 3 3 4 3 3 2 1 1 1 2 2 1
3 3 4 4 5 4 3 3 2 2 2 2 3 3 3 4 4 4 5 5 4 5 5 4 3 2 2 1 0 0 2 3 3 3 2 2 1 1 1 1 2 2 2
4 4 4 4 4 3 3 2 2 2 2 2 3 3 3 3 4 5 5 5 5 5 5 5 4 4 3 2 1 1 2 3 4 4 4 3 1 1 0 1 1 1 1
3 3 4 4 4 3 2 2 1 1 1 1 2 2 2 3 4 4 5 4 4 4 6 6 6 5 5 4 2 1 1 2 4 4 4 3 1 0 0 0 1 1 1
3 3 3 3 3 2 2 1 1 1 1 1 1 1 1 2 2 3 4 3 3 4 6 7 6 6 6 5 3 1 0 1 2 3 3 2 1 0 0 0 0 0 0
2 2 2 2 2 2 1 1 1 1 1 1 1 1 1 1 1 2 2 2 3 4 6 6 6 6 6 5 3 2 1 1 1 2 2 1 1 0 0 0 0 1 1
2 2 2 2 2 2 2 2 1 1 1 1 1 0 0 0 0 1 1 1 2 2 3 3 4 4 4 3 2 2 2 1 1 1 1 1 1 1 1 1 1 1 1
3 3 3 3 2 2 2 2 2 2 1 1 1 0 0 0 0 1 1 1 1 1 1 1 2 2 2 1 1 1 1 1 1 1 1 1 1 1 1 1 1 2 2
Wind_Speed
5 5 4 4 4 4 4 4 4 3 3 2 3 2 2 2 1 0 1 1 2 2 2 2 1 1 1 1 0 0 1 1 1 2 3 3 3 2 2 1 1 3 3
5 5 4 4 4 4 3 4 4 3 3 2 2 2 1 1 0 0 1 1 1 2 1 1 1 1 1 1 0 0 1 0 0 0 1 2 3 3 2 2 2 2 3
5 5 5 4 3 3 3 3 3 4 3 2 2 1 1 1 0 1 0 1 1 1 1 1 1 0 1 0 1 1 1 0 0 1 2 1 1 2 3 3 2 2 2
5 5 5 4 3 3 4 4 4 4 3 3 2 2 2 1 1 1 0 0 1 0 0 0 1 1 1 0 2 1 1 2 1 1 1 2 1 1 3 3 3 3 3
5 5 5 4 3 3 4 4 4 4 4 3 3 3 2 1 0 1 1 1 0 0 0 0 0 1 1 1 2 1 1 1 1 0 1 1 1 1 1 2 3 3 2
5 5 5 4 3 3 4 4 5 5 4 4 3 2 1 1 0 1 1 1 1 0 0 0 0 1 1 0 1 1 1 1 1 1 0 1 1 2 1 2 2 2 2
5 5 5 5 4 4 4 4 5 5 5 4 3 2 2 2 2 1 1 1 1 0 0 0 0 0 0 0 0 0 1 1 1 1 1 1 1 0 1 1 2 1 2
5 5 5 4 4 4 4 4 4 4 4 4 3 3 2 2 1 1 1 1 1 1 0 0 0 0 0 1 1 0 1 0 0 1 1 1 0 0 1 1 2 2 2
5 5 5 5 4 4 5 5 5 4 4 4 4 3 2 1 0 1 1 1 1 1 1 0 0 0 0 0 0 1 1 0 1 1 1 2 1 1 1 1 2 2 2
4 5 5 5 4 4 5 5 5 4 4 4 3 3 2 2 1 0 0 1 1 1 1 1 1 1 1 1 1 1 1 1 1 1 1 2 2 1 2 2 2 2 3
3 4 5 5 5 5 5 5 5 4 4 3 3 3 2 2 1 1 1 1 1 1 1 2 2 2 2 1 1 1 1 1 2 2 2 2 2 1 2 2 2 2 3
3 4 5 5 5 5 5 5 4 4 4 3 3 3 2 2 1 1 1 1 1 1 1 2 2 2 2 2 2 2 2 2 3 2 2 2 2 2 2 2 3 2 2
3 5 5 5 4 4 4 4 4 4 4 4 3 3 2 2 1 1 1 1 1 1 1 2 2 2 2 2 2 3 3 3 3 3 3 3 3 3 2 3 3 3 3
4 4 4 4 4 4 4 4 4 4 4 4 3 3 2 2 1 1 1 1 1 2 2 2 2 2 2 3 3 3 3 3 3 3 3 3 3 3 3 3 3 3 3
3 4 4 4 4 4 3 3 3 3 3 3 3 3 2 2 2 1 1 1 1 2 2 2 2 2 2 2 2 3 3 3 3 3 4 3 2 2 3 3 3 3 3
3 3 4 4 3 3 3 3 3 3 3 3 3 2 2 2 2 2 2 2 2 2 2 2 2 3 1 1 2 4 4 4 4 4 4 4 4 4 4 4 4 4 5
2 3 3 3 3 2 2 2 2 2 3 3 3 3 2 2 2 2 2 2 2 2 3 3 3 3 1 0 1 3 5 4 4 4 4 3 2 3 3 4 6 6 7
1 2 3 3 3 3 2 2 2 2 2 3 3 2 3 2 1 1 1 2 2 2 3 3 3 3 2 2 2 3 5 3 3 3 3 3 3 2 2 4 5 5 5
1 2 3 3 3 3 3 2 2 2 1 1 2 2 2 2 1 1 1 2 2 2 2 2 2 2 2 2 2 4 3 2 3 3 3 4 3 0 2 4 5 5 5
2 2 3 4 4 3 3 2 2 2 1 0 1 1 2 2 1 1 1 1 2 2 2 1 1 1 1 2 2 3 3 2 3 3 3 2 2 1 2 5 5 6 5
2 3 3 3 3 3 3 2 2 1 0 0 0 1 1 2 1 1 1 1 1 1 1 1 1 1 1 2 2 1 3 3 3 2 2 1 3 2 3 5 6 5 5
3 3 3 3 3 3 3 3 2 1 1 1 0 0 1 1 1 1 1 1 2 2 2 1 1 1 2 1 2 2 3 4 4 3 3 1 2 2 4 4 4 4 5
2 2 2 2 3 3 3 3 2 1 1 1 1 1 1 1 1 2 2 2 2 2 1 1 1 0 1 2 3 4 5 5 4 3 2 2 3 4 5 6 6 5 5
2 2 3 3 3 2 2 2 2 2 2 1 1 1 1 1 1 1 1 1 1 1 1 1 1 1 1 1 1 1 3 5 5 4 2 5 6 6 5 4 4 4 3
1 2 2 2 2 2 2 2 2 2 2 1 1 1 1 1 1 1 0 1 1 2 2 1 1 2 1 2 4 3 3 3 3 3 3 4 3 3 3 3 2 2 3
1 1 1 1 1 2 2 1 2 2 2 2 2 2 2 1 2 2 2 1 0 1 1 2 3 1 2 2 2 2 2 2 2 3 4 3 4 4 3 3 2 3 3
Wind_Direction
161 156 158 156 159 168 177 187 195 180 198 198 203 195 196 212 218 214 40 323 320 315 297 299 185 244 236 303 312 248 157 141 128 136 134 132 132 116 101 110 122 126 131
157 153 157 157 162 167 177 186 188 184 197 192 217 219 224 228 232 304 84 306 308 305 280 325 278 216 189 162 262 303 307 86 86 256 171 164 156 150 127 131 135 122 137
174 165 167 167 163 169 178 180 181 177 183 184 191 177 158 179 162 250 178 295 316 323 335 8 324 321 257 192 233 228 255 261 139 344 313 276 108 127 134 132 127 129 130
175 171 167 168 169 170 169 168 169 168 167 176 179 191 207 212 222 248 57 342 328 328 342 9 345 307 310 328 247 216 244 256 227 136 350 333 6 246 140 147 141 145 144
173 171 166 162 159 160 157 156 160 162 165 171 173 195 206 211 187 194 154 258 217 334 4 31 334 273 287 319 312 322 264 250 275 250 153 143 167 234 215 155 146 152 153
167 167 158 150 149 151 154 150 158 166 166 168 168 185 156 141 174 194 198 211 191 143 38 25 1 295 321 345 295 278 245 295 319 312 289 217 180 170 193 164 161 160 155
164 164 161 154 150 149 151 150 150 159 158 156 154 161 168 181 198 227 203 249 249 185 78 339 323 325 15 30 17 141 316 309 333 300 284 270 291 206 204 182 160 169 161
166 168 165 159 153 152 158 155 152 154 156 154 153 163 184 204 198 246 274 244 263 274 133 217 265 282 54 61 67 100 133 106 303 306 312 293 279 220 221 219 189 193 195
170 173 168 164 160 160 160 162 158 159 158 156 154 154 164 168 146 267 274 286 262 223 171 185 233 261 92 22 69 69 62 145 218 221 214 248 221 220 224 233 235 229 221
177 173 168 164 160 161 156 160 160 162 159 160 159 142 153 163 157 197 294 308 292 250 191 183 191 186 181 189 220 171 147 211 224 251 264 268 249 223 220 220 232 253 254
173 167 164 159 157 159 156 159 154 154 158 155 149 148 157 154 155 166 242 260 263 241 211 201 203 199 194 201 206 229 202 222 221 226 218 236 270 247 231 224 223 231 238
163 156 154 153 155 157 157 157 153 156 157 152 154 156 159 155 166 169 217 257 256 244 221 213 214 213 203 212 220 228 222 228 228 222 217 227 222 225 256 251 235 230 237
158 154 156 157 151 150 154 152 157 153 151 153 157 153 154 154 163 173 178 199 221 243 241 224 222 228 232 231 232 241 236 234 237 235 227 224 226 228 232 245 241 235 230
158 157 156 150 141 143 151 151 152 151 155 157 154 149 151 158 172 174 173 199 216 229 244 242 232 241 245 247 246 248 243 240 239 238 239 239 234 234 244 241 239 241 241
161 162 161 149 147 142 138 134 134 141 151 156 152 153 153 158 172 178 185 209 236 234 242 250 236 243 240 265 285 268 250 242 241 240 238 234 230 262 270 272 255 245 244
181 171 163 156 156 147 135 128 137 148 156 155 150 145 149 156 177 195 204 209 223 239 243 246 242 242 250 35 315 287 264 249 242 243 244 226 207 205 216 241 256 265 255
193 179 170 163 163 160 156 156 150 153 162 161 163 161 170 175 194 213 211 217 227 231 245 246 238 234 206 147 255 277 271 256 251 246 249 252 229 231 240 216 219 234 241
192 182 174 165 160 158 164 177 161 162 164 165 166 172 185 182 190 219 240 255 252 244 243 249 242 238 183 161 216 265 249 254 253 251 249 252 260 278 287 268 253 247 239
184 183 175 161 156 160 160 170 164 160 160 159 170 186 191 190 194 208 241 256 259 250 243 245 245 235 186 160 205 261 251 244 254 259 254 253 251 92 306 268 263 260 254
155 165 166 156 156 161 160 166 164 155 154 174 205 199 199 196 208 225 240 232 240 244 252 247 249 229 198 134 181 257 264 257 258 242 238 202 251 260 245 260 260 259 265
156 158 158 153 149 150 160 175 176 169 145 162 210 179 192 202 198 203 228 245 237 220 225 209 212 200 191 143 142 266 283 286 278 275 266 244 151 211 247 262 262 263 278
137 143 142 138 141 151 163 168 169 164 142 123 114 130 200 238 172 188 207 231 242 199 181 192 217 188 177 167 155 188 249 289 279 280 290 339 145 224 252 254 263 261 264
137 148 144 143 148 161 173 170 160 160 155 154 164 201 216 233 216 206 195 204 215 232 227 226 235 231 179 163 183 202 224 247 261 284 329 306 242 239 238 231 234 241 248
154 161 169 161 155 159 168 164 161 172 173 182 196 200 203 212 187 225 223 237 231 227 239 256 268 278 255 257 217 240 231 227 236 256 242 223 230 242 250 233 219 233 255
164 179 186 174 166 161 168 167 165 184 198 203 209 225 224 204 206 209 302 285 356 357 308 302 291 285 270 359 354 311 297 296 303 293 268 259 246 242 245 249 255 248 243
163 179 196 191 188 179 175 180 187 191 208 226 227 232 238 239 230 199 181 113 217 123 208 307 310 17 55 47 3 342 331 318 292 270 258 263 261 259 258 255 255 252 252